Location: Saginaw
(43.4190°N, 83.9510°W)
Time: 11:11:05
(UTC-04:00)

N. Korean satellite - Visible Passes

Search period start: 20 September 2018 00:00
Search period end: 30 September 2018 00:00
Orbit: 458 x 511 km, 97.2° (Epoch: 20 September)

Date Brightness Start Highest point End Pass type
(mag) Time Alt. Az. Time Alt. Az. Time Alt. Az.
21 Sep 10.7 06:50:06 10° ENE 06:50:50 10° E 06:51:35 10° E visible
22 Sep 9.8 20:08:10 10° SW 20:10:29 17° W 20:12:51 10° NW visible
26 Sep 9.8 20:03:58 10° SW 20:06:31 19° W 20:09:07 10° NW visible
29 Sep 10.4 20:26:12 10° WSW 20:27:05 11° W 20:28:00 10° WNW visible
